Location: Kalberh�ni
(46.4610°N, 7.2453°E)
Time: 05:13:30
(UTC+00:00)

Cosmos 2333 Rocket - Pass Details

Date: 28 October 2021
Orbit: 837 x 865 km, 70.8° (Epoch: 05 December)

Event Time Altitude Azimuth Distance (km) Brightness Sun altitude
Exits shadow 02:42:14 34° 30° (NNE) 1,399 3.6 -35.4°
Maximum altitude 02:43:15 36° 52° (NE) 1,338 3.6 -35.2°
Drops below altitude 10° 02:48:32 10° 119° (ESE) 2,503 5.1 -34.4°
Sets 02:51:11 0° 128° (SE) 3,437 5.8 -33.9°
